Regional Weather Roundup
Issued by NWS

Home | Current Version | Previous Version | Graphics & Text | Print | Product List | Glossary On
Versions: 1 2 3 4 5 6 7 8 9 10 11 12 13 14 15 16 17 18 19 20 21 22 23 24 25 26 27 28 29 30 31 32 33 34 35 36 37 38 39 40 41 42 43 44 45 46 47 48 49 50
000
ASUS43 KDMX 240201
RWRIA

WEATHER ROUNDUP FOR IOWA
NATIONAL WEATHER SERVICE DES MOINES IA
900 PM CDT WED AUG 23 2017

NOTE: "FAIR" INDICATES FEW OR NO CLOUDS BELOW 12,000 FEET WITH NO
SIGNIFICANT WEATHER AND/OR OBSTRUCTIONS TO VISIBILITY.

* - THESE STATIONS ARE NOT NWS STATIONS...THUS NOT UNDER NWS
QUALITY CONTROL.  THEY ALSO DO NOT REPORT WEATHER SUCH
AS PRECIPITATION OR FOG.

IAZ001>003-012>014-020>022-031>034-043>046-240300-
   NORTHWEST IOWA

CITY           SKY/WX    TMP DP  RH WIND       PRES   REMARKS
CARROLL *        N/A     64  61  88 S3        30.03S
CHEROKEE *     CLOUDY    69  60  73 E3        30.03R
DENISON *      MOCLDY    68  59  73 S9        30.04S
LE MARS *      MOCLDY   N/A N/A N/A CALM      30.01R
ORANGE CITY *  CLOUDY    72  63  73 CALM      30.04R
SHELDON *      HVY RAIN  66  64  94 S9        30.02R
SIOUX CITY     CLOUDY    70  62  76 S8        29.99S
SPENCER        LGT RAIN  66  62  87 S5        30.04R
STORM LAKE *     N/A     66  59  77 SE6       30.03S
$$

IAZ055>058-069>071-079>083-090>094-240300-
   SOUTHWEST IOWA

CITY           SKY/WX    TMP DP  RH WIND       PRES   REMARKS
ATLANTIC *       N/A     66  61  82 CALM      30.04S
AUDUBON *        N/A     63  59  88 CALM      30.05F
CLARINDA *       N/A     64  64 100 CALM      30.07R
COUNCIL BLFS * MOCLDY    66  61  82 SE6       30.04S
CRESTON *        N/A     68  57  68 CALM      30.07S
HARLAN  *        N/A     64  61  88 S3        30.07S
LAMONI           N/A     70  54  56 CALM      30.06R
RED OAK *        N/A     66  61  82 CALM      30.05S
SHENANDOAH *     N/A     66  63  88 SE5       30.05R
$$

IAZ047>049-059>061-072>074-084-240300-
   CENTRAL IOWA

CITY           SKY/WX    TMP DP  RH WIND       PRES   REMARKS
AMES             N/A     62  60  93 S5        30.04S
ANKENY *         N/A     64  59  82 CALM      30.05S
BOONE *          N/A     66  59  77 SE5       30.04S
CHARITON *       N/A     68  57  68 SE3       30.06R
DES MOINES       N/A     72  54  53 S5        30.04R
GRINNELL*        N/A     64  56  76 CALM      30.07R
KNOXVILLE *      N/A     70  52  52 SE5       30.04S
MARSHALLTOWN     N/A     66  56  70 SE3       30.04S
NEWTON *         N/A     63  57  82 SE6       30.05S
PELLA *          N/A     65  54  66 CALM      30.06S
PERRY *          N/A     64  61  90 S5        30.04S
$$

IAZ004>006-015-016-023>025-035-036-240300-
   NORTH CENTRAL IOWA

CITY           SKY/WX    TMP DP  RH WIND       PRES   REMARKS
ALGONA *         N/A     66  61  82 CALM      30.04R
CLARION *      CLOUDY    64  61  88 E5        30.04S
ESTHERVILLE      N/A     63  60  90 SE3       30.03R
MASON CITY     MOCLDY    62  56  80 CALM      30.06R
FOREST CITY *  MOCLDY    63  61  94 CALM      30.04S
WEBSTER CITY *   N/A     63  57  82 S5        30.03R
IOWA FALLS *     N/A     64  59  84 CALM      30.06S
$$

IAZ007>011-017>019-026>030-037>042-050>054-066-240300-
   NORTHEAST IOWA

CITY           SKY/WX    TMP DP  RH WIND       PRES   REMARKS
CEDAR RAPIDS     N/A     64  54  69 NW5       30.04S
CHARLES CITY *   N/A     59  59 100 CALM      30.05S
CLINTON *        N/A     65  58  78 W3        30.05R
DECORAH *        N/A     63  54  72 CALM      30.04R
DUBUQUE          N/A     61  56  83 CALM      30.05R
MONTICELLO *     N/A     59  57  94 CALM      30.04R
OELWEIN *        N/A     63  54  72 CALM      30.06R
WATERLOO         N/A     61  55  81 CALM      30.04R
$$

IAZ064-065-067-068-078-240300-
   EAST CENTRAL IOWA

CITY           SKY/WX    TMP DP  RH WIND       PRES   REMARKS
DAVENPORT        N/A     59  56  89 CALM      30.06R
IOWA CITY        N/A     68  55  63 CALM      30.06R
MUSCATINE *      N/A     64  57  77 CALM      30.05R
QUAD CITIES      N/A     63  55  75 CALM      30.04R
$$

IAZ062-063-075>077-085>089-095>099-240300-
   SOUTHEAST IOWA

CITY           SKY/WX    TMP DP  RH WIND       PRES   REMARKS
BURLINGTON       N/A     64  56  75 CALM      30.05R
FAIRFIELD *      N/A     64  55  72 CALM      30.05S
FORT MADISON *   N/A     64  55  72 CALM      30.07R
KEOKUK *         N/A     64  57  77 CALM      30.05S
OSKALOOSA *      N/A     58  56  93 CALM      30.06R
OTTUMWA          N/A     62  56  80 CALM      30.06R
WASHINGTON *     N/A     63  57  82 CALM      30.06S
$$

ABBREVIATIONS USED IN REMARKS
   TC - TEMPERATURES IN CELSIUS
  WCI - WIND CHILL INDEX
   HX - HEAT INDEX
  VSB - VISIBILITY
$$




USA.gov is the U.S. government's official web portal to all federal, state and local government web resources and services.